CST,Max TemperatureF,Mean TemperatureF,Min TemperatureF,Max Dew PointF,MeanDew PointF,Min DewpointF,Max Humidity, Mean Humidity, Min Humidity, Max Sea Level PressureIn, Mean Sea Level PressureIn, Min Sea Level PressureIn, Max VisibilityMiles, Mean VisibilityMiles, Min VisibilityMiles, Max Wind SpeedMPH, Mean Wind SpeedMPH, Max Gust SpeedMPH,PrecipitationIn, CloudCover, Events, WindDirDegrees
2013-1-1,37,32,27,36,30,19,100,82,69,30.28,30.14,30.05,10,8,2,13,6,,0.00,7,Snow,7
2013-1-2,32,26,21,22,18,16,85,71,52,30.33,30.29,30.25,10,9,5,6,3,,0.00,0,,14
2013-1-3,45,33,21,28,23,16,89,74,44,30.45,30.38,30.29,10,9,6,6,1,,0.00,0,,272
2013-1-4,46,34,23,27,23,19,88,70,34,30.49,30.42,30.38,10,10,6,12,2,17,0.00,0,,221
2013-1-5,44,35,26,34,30,22,92,79,62,30.39,30.31,30.23,10,10,7,13,3,,0.00,6,,200
2013-1-6,46,36,26,34,27,22,93,72,46,30.42,30.29,30.18,10,9,4,14,6,18,0.00,0,,278
2013-1-7,43,32,21,29,24,18,89,78,56,30.48,30.36,30.23,10,8,3,8,2,,0.00,0,,147
2013-1-8,54,40,25,40,32,22,89,75,51,30.28,30.22,30.17,10,8,2,9,1,,0.00,2,Rain,162
2013-1-9,59,52,44,46,43,40,93,77,62,30.41,30.34,30.25,10,9,5,10,4,,0.02,5,Rain,38
2013-1-10,64,55,46,61,52,39,94,90,71,30.37,30.07,29.85,10,6,1,20,10,38,0.38,8,Rain-Thunderstorm,92
2013-1-11,63,56,48,56,51,45,90,81,63,29.98,29.91,29.86,10,10,10,16,11,21,0.00,2,,203
2013-1-12,60,53,41,58,53,38,100,93,86,29.94,29.82,29.69,10,3,0,28,5,44,2.81,7,Fog-Rain-Thunderstorm,19
2013-1-13,41,34,26,37,30,18,93,82,69,30.37,30.04,29.83,10,8,3,23,15,30,0.64,7,Rain-Thunderstorm,347
2013-1-14,30,26,23,20,17,15,75,68,52,30.51,30.42,30.38,10,10,10,15,10,,0.00,1,,8
2013-1-15,32,28,23,22,19,17,78,68,57,30.38,30.24,30.14,10,8,2,13,10,,0.01,6,Snow,15
2013-1-16,37,32,26,23,21,17,81,65,44,30.21,30.15,30.12,10,10,10,9,5,,0.00,3,,324
2013-1-17,46,36,26,34,26,21,84,69,53,30.52,30.32,30.16,10,10,10,23,5,28,0.00,1,,332
2013-1-18,46,35,24,33,27,20,88,74,56,30.57,30.46,30.29,10,10,10,15,3,,0.00,0,,191
2013-1-19,55,44,34,42,35,29,82,68,54,30.28,30.18,30.08,10,10,10,18,9,28,0.00,0,,207
2013-1-20,46,40,32,35,27,19,92,61,44,30.31,30.25,30.16,10,10,10,13,6,,0.00,0,,33
2013-1-21,41,34,27,20,15,11,66,50,35,30.40,30.34,30.27,10,10,10,18,8,24,0.00,0,,338
2013-1-22,27,24,21,17,8,4,75,49,39,30.49,30.42,30.37,10,10,10,10,7,,0.00,4,,81
2013-1-23,46,32,19,32,24,16,89,73,54,30.39,30.28,30.17,10,10,10,12,2,,0.00,0,,232
2013-1-24,36,31,26,25,16,11,64,54,43,30.57,30.41,30.27,10,10,10,15,12,24,0.00,4,,50
2013-1-25,48,39,28,31,24,18,92,62,46,30.26,30.19,30.14,10,10,5,9,4,,0.00,4,,30
2013-1-26,48,39,30,30,28,25,88,69,46,30.38,30.32,30.26,10,9,5,10,3,,0.00,1,,61
2013-1-27,55,44,33,50,38,25,87,81,67,30.30,30.18,30.06,10,8,4,10,5,,0.06,6,Rain,114
2013-1-28,66,62,57,61,58,51,90,84,79,30.06,30.01,29.97,10,8,2,20,12,29,0.02,7,,191
2013-1-29,73,64,55,61,58,52,89,79,61,29.96,29.71,29.39,10,8,1,24,15,39,1.03,8,Rain-Thunderstorm,187
2013-1-30,55,44,33,52,40,19,94,76,54,30.01,29.60,29.46,10,10,5,25,11,36,0.13,8,Rain,244
2013-1-31,48,37,23,32,21,7,81,61,41,30.40,30.14,30.01,10,9,2,23,12,36,0.00,3,Snow,279